Regional Weather Roundup
Issued by NWS

Home | Current Version | Previous Version | Graphics & Text | Print | Product List | Glossary Off
Versions: 1 2 3 4 5 6 7 8 9 10 11 12 13 14 15 16 17 18 19 20 21 22 23 24 25 26 27 28 29 30 31 32 33 34 35 36 37 38 39 40 41 42 43 44 45 46 47 48 49 50

000
ASUS43 KLSX 020659
RWRMO

WEATHER SUMMARY FOR MISSOURI
NATIONAL WEATHER SERVICE SPRINGFIELD MO
200 AM CDT TUE JUN 02 2015

NOTE: "FAIR" INDICATES FEW OR NO CLOUDS BELOW 12,000 FEET WITH NO
       SIGNIFICANT WEATHER AND/OR OBSTRUCTIONS TO VISIBILITY.
       CURRENT SKY AND/OR WEATHER CONDITIONS ARE NOT AVAILABLE FOR
       CHILLICOTHE AND FARMINGTON.

MOZ001>031-035>038-043-044-053-054-020800-
...NORTHERN AND WESTERN MISSOURI...

CITY           SKY/WX    TMP DP  RH WIND       PRES   REMARKS
KANSAS CTY INT CLOUDY    59  53  80 S8        30.12F
KANSAS C DTWN  CLOUDY    62  52  69 S9        30.12S
LEE`S SUMMIT   CLOUDY    60  53  77 SE6       30.13S
ST JOSEPH      CLOUDY    61  54  77 S12       30.12S
CHILLICOTHE      N/A     61  54  77 CALM      30.14S
KIRKSVILLE     CLEAR     51  51 100 CALM      30.14S FOG

$$
MOZ066>068-077>081-088>096-101>105-020800-
...SOUTHWEST MISSOURI...

CITY           SKY/WX    TMP DP  RH WIND       PRES   REMARKS
SPRINGFIELD    CLEAR     56  53  90 E6        30.11S
JOPLIN         CLEAR     56  54  93 NE6       30.10S

$$
MOZ032>034-039>042-045>050-055>058-069>072-020800-
...CENTRAL MISSOURI...

CITY           SKY/WX    TMP DP  RH WIND       PRES   REMARKS
COLUMBIA       CLOUDY    58  56  93 E3        30.13S
JEFFERSON CITY CLOUDY    60  56  86 E3        30.13S
ROLLA          CLOUDY    57  56  96 CALM      30.11F
SEDALIA        CLOUDY    60  55  83 SE5       30.14S
OSAGE BEACH    CLOUDY    57  55  94 NE6       30.12F

$$
MOZ051-052-059>065-020800-
...EAST CENTRAL MISSOURI...

CITY           SKY/WX    TMP DP  RH WIND       PRES   REMARKS
ST LOUIS INTL  MOCLDY    63  56  78 CALM      30.12S
SPIRIT OF STL  CLOUDY    59  58  96 SW3       30.11S
ST CHARLES     CLOUDY    62  57  83 E6        30.11S

$$
MOZ072>076-082>087-097>100-106>115-020800-
...SOUTH CENTRAL AND SOUTHEAST MISSOURI...

CITY           SKY/WX    TMP DP  RH WIND       PRES   REMARKS
CAPE GIRARDEAU CLOUDY    60  55  83 NE6       30.09F
FARMINGTON     CLOUDY    59  55  88 CALM      30.15S
POPLAR BLUFF   CLOUDY    61  57  87 N5        30.09F
WEST PLAINS    CLOUDY    58  55  90 NE3       30.12F

$$


USA.gov is the U.S. government's official web portal to all federal, state and local government web resources and services.